User: anonymous   Login
Location: Lourdes
(43.1000°N, 0.0500°W)
Time: 17:23:03
(UTC+00:00)
Language:

Cosmos 1943 - Orbit

View from above orbital plane
View from above orbital plane
View from above satellite
View from above satellite

Ground track
Ground track

The orbit data is extracted from the following two-line orbital elements,

1 19119U 88039A   21165.77767635 -.00000071  00000-0 -12013-4 0  9993
2 19119  71.0045 278.4895 0011910 348.0513 123.5024 14.15178644708170
Epoch (UTC): 14 June 2021 18:39:51
Eccentricity: 0.0011910
inclination: 71.0045°
perigee height: 833 km
apogee height: 850 km
right ascension of ascending node: 278.4895°
argument of perigee: 348.0513°
revolutions per day: 14.15178644
mean anomaly at epoch: 123.5024°
orbit number at epoch: 70817

The dashed part of the orbit path shows where the satellite is in the earth's shadow,  

DLR